This is the latest recevied weather packets stored in our database for station/object KE8WMS. If no packets are shown the sender has not sent any weather packets the latest 10 day(s).
| Time | Temp. | Humidity | Pressure | Rain* | Wind** | Luminosity | Snow |
|---|---|---|---|---|---|---|---|
| 1788093721 | 21.67° C | 79% | 1015.1 hPa | 0 mm | - | 72 W/m² | - |
| 1788093417 | 21.67° C | 80% | 1015.3 hPa | 0 mm | - | 49 W/m² | - |
| 1788093113 | 21.67° C | 80% | 1015.4 hPa | 0 mm | - | 42 W/m² | - |
| 1788092810 | 21.67° C | 80% | 1015.3 hPa | 0 mm | - | 42 W/m² | - |
| 1788092505 | 21.11° C | 80% | 1015.2 hPa | 0 mm | - | 31 W/m² | - |
| 1788092201 | 21.11° C | 79% | 1015.3 hPa | 0 mm | - | 25 W/m² | - |
| 1788091900 | 21.11° C | 80% | 1015.2 hPa | 0 mm | - | 17 W/m² | - |
| 1788091595 | 21.11° C | 79% | 1015.2 hPa | 0 mm | - | 12 W/m² | - |
| 1788091292 | 21.11° C | 80% | 1015.1 hPa | 0 mm | - | 11 W/m² | - |
| 1788090987 | 21.11° C | 80% | 1015 hPa | 0 mm | - | 10 W/m² | - |
| 1788090683 | 21.11° C | 79% | 1015.1 hPa | 0 mm | - | 16 W/m² | - |
| 1788090380 | 21.11° C | 80% | 1015.2 hPa | 0 mm | - | 14 W/m² | - |
| 1788090079 | 21.11° C | 80% | 1015.2 hPa | 0 mm | - | 7 W/m² | - |
| 1788089774 | 21.11° C | 79% | 1015.1 hPa | 0 mm | - | 6 W/m² | - |
| 1788089469 | 21.11° C | 79% | 1014.9 hPa | 0 mm | - | 4 W/m² | - |
| 1788089166 | 20.56° C | 80% | 1014.9 hPa | 0 mm | - | 4 W/m² | - |
| 1788088861 | 20.56° C | 80% | 1014.9 hPa | 0 mm | - | 5 W/m² | - |
| 1788088557 | 20.56° C | 80% | 1014.9 hPa | 0 mm | - | 4 W/m² | - |
| 1788088253 | 20.56° C | 81% | 1015.1 hPa | 0 mm | - | 3 W/m² | - |
| 1788087952 | 20.56° C | 81% | 1015 hPa | 0 mm | - | 2 W/m² | - |
| 1788087648 | 20.56° C | 80% | 1014.9 hPa | 0 mm | - | 1 W/m² | - |
| 1788087343 | 20.56° C | 80% | 1014.9 hPa | 0 mm | - | 1 W/m² | - |
| 1788087039 | 20.56° C | 80% | 1015 hPa | 0 mm | - | 1 W/m² | - |
| 1788086736 | 20.56° C | 79% | 1015.1 hPa | 0 mm | - | 0 W/m² | - |
| 1788086432 | 20.56° C | 79% | 1014.9 hPa | 0 mm | - | 0 W/m² | - |
* Rain latest hour (hover to see other rain measurements)
** Current wind speed in m/s (hover to see current wind gust speed)